FW7233 Weather Reports


time (UTC)temp
C
wind
direction
speed
KPH
gust
KPH
rain 1hr
cm
rain 24hr
cm
rain mn
cm
humidity
%
barometer
mb
20260905183007 13 249 6.4 20.9 0.03 0.97 0.61 95 1016.9
20260905182007 13 200 3.2 22.5 0.00 0.97 0.58 95 1016.8
20260905181005 13 131 1.6 16.1 0.08 0.97 0.58 98 1016.7
20260905180007 12 144 0.0 0.0 0.08 0.89 0.58 98 1016.0
20260905175005 13 151 0.0 4.8 0.08 0.89 0.58 98 1016.0
20260905174006 13 251 1.6 6.4 0.08 0.89 0.58 97 1016.1
20260905173007 13 131 1.6 11.3 0.08 0.89 0.58 97 1016.4
20260905172005 13 173 1.6 12.9 0.08 0.89 0.56 97 1016.3
20260905171005 13 248 3.2 11.3 0.03 0.89 0.51 98 1016.4
20260905170012 13 149 1.6 1.6 0.10 0.79 0.51 98 1015.6
20260905165007 13 142 0.0 1.6 0.18 0.79 0.51 98 1015.7
20260905164008 13 157 0.0 1.6 0.18 0.79 0.51 98 1015.4
20260905163008 13 144 0.0 0.0 0.18 0.79 0.51 97 1015.7
20260905161007 14 159 0.0 14.5 0.15 0.79 0.48 96 1016.1
20260905155005 15 164 1.6 1.6 0.00 0.71 0.33 96 1015.3
20260905154007 16 151 0.0 1.6 0.00 0.71 0.33 95 1015.0
20260905153007 16 148 0.0 3.2 0.00 0.71 0.33 95 1014.8
20260905145005 17 162 1.6 1.6 0.30 0.61 0.33 86 1015.0
20260905144007 17 141 0.0 3.2 0.30 0.61 0.33 83 1015.1
20260905142005 15 153 0.0 3.2 0.30 0.61 0.33 92 1015.0
20260905141005 14 78 1.6 4.8 0.30 0.61 0.33 93 1015.2
20260905140007 16 71 1.6 16.1 0.20 0.41 0.18 86 1015.6
20260905135005 18 174 4.8 17.7 0.00 0.41 0.03 73 1015.0
20260905134004 20 192 6.4 17.7 0.00 0.41 0.03 61 1014.4
20260905133005 21 253 3.2 16.1 0.00 0.41 0.03 61 1014.6
20260905132019 21 281 8.0 22.5 0.00 0.41 0.03 61 1014.5
20260905125007 21 133 0.0 24.1 0.00 0.41 0.03 62 1014.8
20260905123005 21 205 3.2 20.9 0.00 0.41 0.03 58 1014.6
20260905122006 20 6 1.6 14.5 0.00 0.41 0.03 62 1014.6
20260905121005 20 126 1.6 17.7 0.00 0.41 0.03 63 1014.7
20260905115007 19 197 8.0 16.1 0.00 0.41 0.03 63 1015.0
20260905113005 18 308 9.7 20.9 0.00 0.41 0.03 65 1014.8
20260905111005 20 262 4.8 17.7 0.00 0.41 0.03 65 1015.0
20260905110008 19 240 9.7 20.9 0.00 0.41 0.03 65 1014.8
20260905105006 18 207 8.0 29.0 0.00 0.41 0.03 63 1014.8
20260905104007 19 188 3.2 22.5 0.00 0.41 0.03 67 1014.4
20260905103008 20 181 1.6 20.9 0.00 0.41 0.03 64 1014.6
20260905102005 20 262 6.4 29.0 0.00 0.41 0.03 63 1014.4
20260905101005 19 205 6.4 22.5 0.00 0.41 0.03 68 1014.4
20260905095005 19 92 3.2 17.7 0.00 0.41 0.03 67 1014.2
20260905094005 19 344 3.2 14.5 0.00 0.41 0.03 72 1014.2
20260905091005 18 113 1.6 14.5 0.00 0.41 0.03 76 1014.2
20260905090007 18 197 6.4 24.1 0.00 0.41 0.03 73 1013.9
20260905085007 18 172 6.4 22.5 0.00 0.41 0.03 76 1014.1
20260905084005 18 61 3.2 17.7 0.00 0.41 0.03 76 1013.9
20260905081006 18 306 6.4 20.9 0.00 0.41 0.03 76 1013.9
20260905080006 17 299 1.6 14.5 0.00 0.41 0.03 78 1013.9
20260905075006 17 261 9.7 22.5 0.00 0.41 0.03 80 1013.8
20260905073020 17 197 6.4 20.9 0.00 0.41 0.03 83 1013.4
20260905072005 17 337 4.8 16.1 0.00 0.41 0.03 82 1013.2
20260905071006 16 228 9.7 16.1 0.00 0.41 0.03 84 1013.2
20260905070007 16 342 3.2 16.1 0.00 0.41 0.03 85 1013.2
20260905065007 16 341 4.8 22.5 0.00 0.41 0.03 86 1013.1
20260905064006 16 186 9.7 22.5 0.00 0.41 0.03 86 1013.0
20260905063008 16 117 14.5 27.4 0.00 0.41 0.03 85 1012.8
20260905062005 16 272 8.0 22.5 0.00 0.41 0.03 87 1012.8
20260905061005 16 276 16.1 20.9 0.00 0.41 0.03 87 1012.6
20260905060022 16 219 3.2 17.7 0.00 0.41 0.03 88 1012.5
20260905055007 16 89 3.2 17.7 0.00 0.41 0.03 88 1012.6
20260905054007 16 219 11.3 16.1 0.00 0.41 0.03 88 1012.4
20260905053005 16 219 3.2 16.1 0.00 0.41 0.03 90 1012.3
20260905052006 15 263 1.6 9.7 0.00 0.41 0.03 91 1012.2
20260905051006 16 201 6.4 12.9 0.00 0.41 0.03 89 1012.1
20260905050006 16 238 14.5 17.7 0.00 0.41 0.03 90 1011.9
20260905043006 16 215 3.2 16.1 0.00 0.41 0.03 89 1011.6
20260905042006 16 177 4.8 20.9 0.00 0.41 0.03 90 1011.4
20260905040005 16 251 3.2 24.1 0.00 0.41 0.03 90 1011.2
20260905034005 16 334 4.8 22.5 0.00 0.41 0.03 91 1010.8
20260905033007 16 213 9.7 14.5 0.00 0.41 0.03 91 1010.8
20260905032006 16 348 1.6 14.5 0.00 0.41 0.03 91 1010.7
20260905031005 16 158 3.2 12.9 0.00 0.41 0.03 91 1010.5
20260905030006 16 195 6.4 16.1 0.00 0.41 0.03 91 1010.4
20260905025007 16 195 8.0 14.5 0.00 0.41 0.03 91 1010.1
20260905024005 16 205 4.8 20.9 0.00 0.41 0.03 91 1010.2
20260905021005 16 209 11.3 22.5 0.00 0.41 0.03 92 1009.9
20260905015006 16 187 8.0 12.9 0.00 0.41 0.03 93 1010.2
20260905013007 16 110 3.2 24.1 0.00 0.41 0.03 93 1009.9
20260905012008 16 268 4.8 14.5 0.00 0.41 0.03 93 1009.7
20260905011007 16 271 3.2 12.9 0.00 0.41 0.03 93 1009.7
20260905010005 16 260 6.4 11.3 0.00 0.41 0.03 93 1009.2
20260905005008 16 181 8.0 17.7 0.00 0.41 0.03 93 1009.4
20260905004007 16 280 3.2 17.7 0.00 0.41 0.03 93 1009.6
20260905003007 16 253 14.5 20.9 0.00 0.41 0.03 93 1009.5
20260905002007 16 254 3.2 17.7 0.00 0.41 0.03 93 1009.0
20260905001005 16 138 3.2 17.7 0.00 0.41 0.03 93 1008.6
20260905000014 16 152 1.6 24.1 0.00 0.41 0.03 93 1008.8
20260904235005 16 153 6.4 16.1 0.00 0.41 0.03 93 1008.8
20260904234019 16 150 1.6 16.1 0.00 0.41 0.03 92 1008.2
20260904233018 16 278 6.4 20.9 0.03 0.41 0.03 92 1008.1
20260904232006 16 165 3.2 22.5 0.03 0.41 0.03 92 1008.3
20260904230011 16 37 3.2 12.9 0.03 0.38 0.03 93 1008.1
20260904225007 17 178 0.0 17.7 0.03 0.38 0.03 94 1007.7
20260904224005 17 199 9.7 14.5 0.03 0.38 0.00 96 1007.5
20260904222952 17 113 0.0 17.7 0.00 0.38 0.00 97 1007.5
20260904221955 17 296 1.6 12.9 0.00 0.38 0.00 98 1007.5
20260904220952 17 149 3.2 9.7 0.00 0.38 0.00 99 1007.1
20260904214953 17 239 8.0 16.1 0.00 0.38 0.38 99 1006.8
20260904213953 17 183 3.2 11.3 0.00 0.38 0.38 99 1006.9
20260904212954 17 156 1.6 12.9 0.00 0.38 0.38 99 1006.7
20260904211953 17 220 6.4 9.7 0.00 0.38 0.38 99 1006.4
20260904210953 17 217 0.0 9.7 0.00 0.38 0.38 99 1007.1
20260904205953 17 158 0.0 6.4 0.00 0.38 0.38 99 1007.5
20260904204957 17 119 0.0 4.8 0.00 0.38 0.38 99 1006.6
20260904203953 17 222 1.6 11.3 0.00 0.38 0.38 98 1007.0
20260904202955 17 135 1.6 4.8 0.03 0.38 0.38 98 1007.0
20260904201952 17 174 3.2 6.4 0.08 0.38 0.38 98 1007.1
20260904195954 17 46 3.2 11.3 0.38 0.00 0.38 98 1007.4
20260904194955 18 168 0.0 14.5 0.38 0.00 0.38 98 1007.1
20260904193953 18 296 4.8 20.9 0.38 0.00 0.38 97 1007.6
20260904192953 19 40 4.8 14.5 0.36 0.00 0.36 97 1007.2
20260904191955 20 170 3.2 25.7 0.30 0.00 0.30 95 1006.9
20260904185953 22 180 1.6 9.7 0.00 0.00 0.00 79 1005.3
20260904184953 23 122 1.6 12.9 0.00 0.00 0.00 74 1005.2